Provincetown, MA

9:40 PM EDT on May 22, 2018 (GMT -0400)
Provincetown Municipal

Weather History for KPVC - August, 2013

Change the Weather History Date:

Sunday, August 11, 2013

  Actual Average Record
Temperature  
Mean Temperature 65 °F -  
Max Temperature 75 °F 75 °F 91 °F (2016)
Min Temperature 55 °F 62 °F 53 °F (1950)
Growing Degree Days 15 (Base 50)    
Moisture  
Dew Point 55 °F    
Average Humidity 64    
Maximum Humidity 94    
Minimum Humidity 38    
Precipitation  
Precipitation 0.00 in - - ()
Sea Level Pressure  
Sea Level Pressure 30.05 in    
Wind  
Wind Speed 6 mph (WNW)    
Max Wind Speed 13 mph    
Max Gust Speed 17 mph    
Visibility 10 miles    
Events      
Averages and records for this station are not official NWS values.
T = Trace of Precipitation, MM = Missing Value Source: NWS Daily Summary

Daily Weather History Graph

Daily Weather History Graph

Search for Another Location

Airport or City:

Astronomy

Aug. 11, 2013 Rise Set
Actual Time 5:44 AM EDT 7:46 PM EDT
Civil Twilight 5:14 AM EDT 8:17 PM EDT
Nautical Twilight 4:36 AM EDT 8:54 PM EDT
Astronomical Twilight 3:55 AM EDT 9:34 PM EDT
Moon 10:35 AM EDT (8/11) 9:53 PM EDT (8/11)
Length of Visible Light 15h 02m
Length of Day
14h 02m
Waxing Crescent, 22% of the Moon is Illuminated
Aug 11
Waxing Crescent
Aug 14
First Quarter
Aug 20
Full
Aug 28
Last Quarter
Sep 5
New

Hourly Weather History & Observations

Time (EDT) Temp. Dew Point Humidity Pressure Visibility Wind Dir Wind Speed Gust Speed Precip Events Conditions
12:15 AM 62.6 °F 57.2 °F 82% 30.01 in 10.0 mi Calm Calm - N/A   Clear
12:35 AM 60.8 °F 57.2 °F 88% 30.01 in 10.0 mi NW 3.5 mph - N/A   Clear
12:55 AM 64.4 °F 62.6 °F 94% 30.01 in 10.0 mi NNW 5.8 mph - N/A   Clear
1:15 AM 66.2 °F 62.6 °F 88% 30.01 in 10.0 mi North 6.9 mph - N/A   Clear
1:35 AM 66.2 °F 57.2 °F 73% 30.02 in 10.0 mi North 10.4 mph - N/A   Clear
1:55 AM 66.2 °F 57.2 °F 73% 30.03 in 10.0 mi North 10.4 mph - N/A   Clear
2:15 AM 66.2 °F 57.2 °F 73% 30.03 in 10.0 mi NNE 10.4 mph - N/A   Clear
2:35 AM 66.2 °F 57.2 °F 73% 30.03 in 10.0 mi NNE 9.2 mph - N/A   Clear
2:55 AM 66.2 °F 57.2 °F 73% 30.03 in 10.0 mi NNE 9.2 mph - N/A   Clear
3:15 AM 64.4 °F 55.4 °F 73% 30.03 in 10.0 mi NE 8.1 mph - N/A   Clear
3:35 AM 64.4 °F 55.4 °F 73% 30.04 in 10.0 mi NE 6.9 mph - N/A   Clear
3:55 AM 64.4 °F 55.4 °F 73% 30.04 in 10.0 mi NE 5.8 mph - N/A   Clear
4:15 AM 64.4 °F 53.6 °F 68% 30.04 in 10.0 mi NE 4.6 mph - N/A   Clear
4:35 AM 60.8 °F 53.6 °F 77% 30.04 in 10.0 mi NE 4.6 mph - N/A   Clear
4:55 AM 62.6 °F 53.6 °F 72% 30.05 in 10.0 mi NE 4.6 mph - N/A   Clear
5:15 AM 57.2 °F 53.6 °F 88% 30.05 in 10.0 mi Calm Calm - N/A   Clear
5:35 AM 55.4 °F 51.8 °F 88% 30.06 in 10.0 mi Calm Calm - N/A   Clear
5:55 AM 55.4 °F 53.6 °F 94% 30.06 in 10.0 mi Calm Calm - N/A   Clear
6:15 AM 55.4 °F 51.8 °F 88% 30.06 in 10.0 mi Calm Calm - N/A   Clear
6:35 AM 55.4 °F 53.6 °F 94% 30.07 in 10.0 mi Calm Calm - N/A   Clear
6:55 AM 60.8 °F 55.4 °F 82% 30.07 in 10.0 mi Calm Calm - N/A   Clear
7:15 AM 66.2 °F 57.2 °F 73% 30.07 in 10.0 mi North 3.5 mph - N/A   Partly Cloudy
7:35 AM 66.2 °F 57.2 °F 73% 30.08 in 10.0 mi NNW 4.6 mph - N/A   Partly Cloudy
7:55 AM 68.0 °F 55.4 °F 64% 30.08 in 10.0 mi NNW 5.8 mph - N/A   Clear
8:15 AM 68.0 °F 55.4 °F 64% 30.08 in 10.0 mi WNW 5.8 mph - N/A   Clear
8:35 AM 69.8 °F 55.4 °F 60% 30.08 in 10.0 mi WNW 4.6 mph - N/A   Clear
8:55 AM 69.8 °F 57.2 °F 64% 30.08 in 10.0 mi WNW 5.8 mph - N/A   Clear
9:15 AM 69.8 °F 60.8 °F 73% 30.09 in 10.0 mi WNW 6.9 mph - N/A   Clear
9:35 AM 69.8 °F 59.0 °F 68% 30.09 in 10.0 mi WNW 8.1 mph - N/A   Clear
9:55 AM 69.8 °F 57.2 °F 64% 30.09 in 10.0 mi WNW 6.9 mph - N/A   Clear
10:15 AM 69.8 °F 55.4 °F 60% 30.09 in 10.0 mi WNW 8.1 mph - N/A   Clear
10:35 AM 69.8 °F 55.4 °F 60% 30.09 in 10.0 mi West 6.9 mph - N/A   Clear
10:55 AM 71.6 °F 55.4 °F 57% 30.09 in 10.0 mi WNW 6.9 mph - N/A   Clear
11:15 AM 71.6 °F 55.4 °F 57% 30.09 in 10.0 mi NW 6.9 mph - N/A   Clear
11:35 AM 71.6 °F 55.4 °F 57% 30.09 in 10.0 mi WNW 5.8 mph - N/A   Clear
11:55 AM 71.6 °F 53.6 °F 53% 30.08 in 10.0 mi WNW 8.1 mph - N/A   Clear
12:15 PM 71.6 °F 53.6 °F 53% 30.08 in 10.0 mi WNW 8.1 mph - N/A   Clear
12:35 PM 73.4 °F 53.6 °F 50% 30.07 in 10.0 mi WNW 8.1 mph - N/A   Clear
12:55 PM 73.4 °F 50.0 °F 44% 30.07 in 10.0 mi WNW 5.8 mph - N/A   Clear
1:15 PM 73.4 °F 50.0 °F 44% 30.07 in 10.0 mi NNW 6.9 mph - N/A   Clear
1:35 PM 75.2 °F 50.0 °F 41% 30.06 in 10.0 mi NW 4.6 mph - N/A   Clear
1:55 PM 75.2 °F 48.2 °F 38% 30.06 in 10.0 mi NNW 4.6 mph - N/A   Clear
2:15 PM 73.4 °F 46.4 °F 38% 30.06 in 10.0 mi North 4.6 mph - N/A   Clear
2:35 PM 75.2 °F 48.2 °F 38% 30.05 in 10.0 mi NW 4.6 mph - N/A   Clear
2:55 PM 75.2 °F 48.2 °F 38% 30.05 in 10.0 mi NNW 4.6 mph - N/A   Clear
3:15 PM 75.2 °F 48.2 °F 38% 30.05 in 10.0 mi North 5.8 mph - N/A   Clear
3:35 PM 75.2 °F 48.2 °F 38% 30.05 in 10.0 mi NNW 4.6 mph - N/A   Clear
3:55 PM 75.2 °F 48.2 °F 38% 30.05 in 10.0 mi SW 5.8 mph - N/A   Clear
4:15 PM 75.2 °F 51.8 °F 44% 30.05 in 10.0 mi SSW 8.1 mph - N/A   Clear
4:35 PM 75.2 °F 51.8 °F 44% 30.04 in 10.0 mi SW 5.8 mph - N/A   Clear
4:55 PM 75.2 °F 51.8 °F 44% 30.04 in 10.0 mi SW 5.8 mph - N/A   Clear
5:15 PM 75.2 °F 51.8 °F 44% 30.04 in 10.0 mi Calm Calm - N/A   Clear
5:35 PM 75.2 °F 51.8 °F 44% 30.04 in 10.0 mi WSW 4.6 mph - N/A   Clear
5:55 PM 73.4 °F 51.8 °F 47% 30.03 in 10.0 mi SSW 5.8 mph - N/A   Clear
6:15 PM 73.4 °F 51.8 °F 47% 30.03 in 10.0 mi SSW 6.9 mph - N/A   Clear
6:35 PM 73.4 °F 51.8 °F 47% 30.03 in 10.0 mi South 6.9 mph - N/A   Clear
6:55 PM 71.6 °F 53.6 °F 53% 30.03 in 10.0 mi SSE 6.9 mph - N/A   Clear
7:15 PM 71.6 °F 53.6 °F 53% 30.03 in 10.0 mi South 4.6 mph - N/A   Clear
7:35 PM 69.8 °F 55.4 °F 60% 30.03 in 10.0 mi South 4.6 mph - N/A   Clear
7:55 PM 68.0 °F 57.2 °F 68% 30.03 in 10.0 mi SSW 8.1 mph - N/A   Clear
8:15 PM 68.0 °F 57.2 °F 68% 30.04 in 10.0 mi SSW 8.1 mph - N/A   Clear
8:35 PM 68.0 °F 59.0 °F 73% 30.04 in 10.0 mi SSW 8.1 mph - N/A   Partly Cloudy
8:55 PM 68.0 °F 60.8 °F 78% 30.04 in 10.0 mi SW 9.2 mph - N/A   Mostly Cloudy
9:15 PM 68.0 °F 59.0 °F 73% 30.04 in 10.0 mi SSW 8.1 mph - N/A   Partly Cloudy
9:35 PM 66.2 °F 57.2 °F 73% 30.04 in 10.0 mi SSW 8.1 mph - N/A   Partly Cloudy
9:55 PM 66.2 °F 59.0 °F 78% 30.05 in 10.0 mi SW 9.2 mph - N/A   Clear
10:15 PM 66.2 °F 59.0 °F 78% 30.05 in 10.0 mi SW 12.7 mph - N/A   Clear
10:35 PM 66.2 °F 59.0 °F 78% 30.06 in 10.0 mi SW 11.5 mph 17.3 mph N/A   Clear
10:55 PM 66.2 °F 59.0 °F 78% 30.06 in 10.0 mi SW 10.4 mph - N/A   Clear
11:15 PM 66.2 °F 59.0 °F 78% 30.06 in 10.0 mi SW 11.5 mph - N/A   Clear
11:35 PM 66.2 °F 59.0 °F 78% 30.05 in 10.0 mi WSW 11.5 mph - N/A   Clear
11:55 PM 64.4 °F 59.0 °F 83% 30.05 in 10.0 mi WSW 11.5 mph - N/A   Clear